Location: Newark
(59.8814°N, 10.8258°E)
Time: 18:21:13
(UTC+00:00)

Envisat - Pass Details

Date: 24 January 2020
Orbit: 764 x 766 km, 98.1° (Epoch: 17 February)

Event Time Altitude Azimuth Distance (km) Brightness Sun altitude
Rises 16:28:44 0° 157° (SSE) 3,227 6.2 -9.3°
Reaches altitude 10° 16:31:02 10° 157° (SSE) 2,305 5.5 -9.6°
Maximum altitude 16:36:07 82° 71° (ENE) 782 3.0 -10.2°
Drops below altitude 10° 16:41:15 10° 344° (NNW) 2,319 5.5 -10.8°
Sets 16:43:33 0° 344° (NNW) 3,249 6.2 -11.1°
